Zurück zum Katalog

STARLINK-3960

AktivKommunikationVLEO
NORAD 52659·PAYLOAD·🇺🇸 United States

Gestartet May 18, 2022 von Cape Canaveral Space Force Station

Loading…

Nächste Überflüge (nächste 24 Stunden)

TLE

AktuellSource: CelesTrak SupGP

Epoche: Sep 14, 2026, 21:57 UTC

1 52659C 22053D   26257.91506944 -.00017054  00000+0 -51753-3 0  2578
2 52659  53.1592  13.7819 0001261  76.4215 351.0434 15.33555084    18

Verfolge STARLINK-3960 in Echtzeit mit AllMySat

Download on the App Store